Regional Weather Roundup
Issued by NWS

Home | Current Version | Previous Version | Graphics & Text | Print | Product List | Glossary On
Versions: 1 2 3 4 5 6 7 8 9 10 11 12 13 14 15 16 17 18 19 20 21 22 23 24 25 26 27 28 29 30 31 32 33 34 35 36 37 38 39 40 41 42 43 44 45 46 47 48 49 50
000
ASUS44 KMEG 231300
RWRTN
TENNESSEE HOURLY STATE WEATHER ROUNDUP
NATIONAL WEATHER SERVICE MEMPHIS TN
800 AM CDT TUE MAY 23 2017

TNZ002-004-019-021-049-052-054-088>092-231400-
WEST TENNESSEE

CITY           SKY/WX    TMP DP  RH WIND       PRES   REMARKS
MEMPHIS INTL   PTSUNNY   70  60  70 W7        29.81S
NWS MEMPHIS      N/A     67 N/A N/A MISG        N/A
JACKSON        CLOUDY    66  59  78 CALM      29.80F
DYERSBURG      CLOUDY    67  58  72 CALM      29.82S
$$

TNZ008-025-027-028-033-062-065-066-231400-
NORTH MIDDLE TENNESSEE

CITY           SKY/WX    TMP DP  RH WIND       PRES   REMARKS
NASHVILLE      CLOUDY    65  56  72 CALM      29.82S
CLARKSVILLE    CLOUDY    64  56  75 E3        29.81S
SMYRNA         LGT RAIN  64  57  78 CALM      29.85S
CROSSVILLE     CLOUDY    62  58  86 CALM      29.85F
$$

TNZ061-075-076-078-094-096-097-231400-
SOUTH MIDDLE TENNESSEE

CITY           SKY/WX    TMP DP  RH WIND       PRES   REMARKS
$$

TNZ017-018-042-046-047-231400-
NORTHEAST TENNESSEE

CITY           SKY/WX    TMP DP  RH WIND       PRES   REMARKS
TRI CITIES     CLOUDY    64  60  87 VRB3      29.86F
$$

TNZ012-013-036-069-073-074-231400-
CENTRAL EAST TENNESSEE

CITY           SKY/WX    TMP DP  RH WIND       PRES   REMARKS
KNOXVILLE      CLOUDY    64  62  93 NW6       29.83R FOG
OAK RIDGE      CLOUDY    63  57  81 E3        29.85R
GATLINBURG     PTSUNNY   63  61  94 E5        29.83S
$$

TNZ083-085-099-231400-
SOUTHEAST TENNESSEE

CITY           SKY/WX    TMP DP  RH WIND       PRES   REMARKS
CHATTANOOGA    LGT RAIN  64  62  93 CALM      29.81F FOG
$$

SKY/WX REPORTED AS FAIR MEANS FEW OR NO CLOUDS BELOW
12 THOUSAND FEET.





USA.gov is the U.S. government's official web portal to all federal, state and local government web resources and services.